,,,PA_Meas_PMT16A,,PR_Meas_QMR101_102,,RH_Meas_QMH101,,SR_Meas_QMS101,,TA_Meas_QMH101,,GenWind,,GenWind,
date,time,status,PA,status,PR,status,RH,status,SR,status,TA,status,DirAvg,status,SpdAvg,
2009-11-03, 00:00:05,VALID,1009.29,VALID,0,VALID,86.4532,VALID,0,VALID,23.8499,VALID,359,VALID,0,
2009-11-03, 00:01:05,VALID,1009.26,VALID,0,VALID,86.476,VALID,0,VALID,23.8712,VALID,359,VALID,0,
2009-11-03, 00:02:05,VALID,1009.23,VALID,0,VALID,86.476,VALID,0,VALID,23.8499,VALID,359,VALID,0,
2009-11-03, 00:03:05,VALID,1009.21,VALID,0,VALID,86.4837,VALID,0,VALID,23.8304,VALID,359,VALID,0,
2009-11-03, 00:04:05,VALID,1009.18,VALID,0,VALID,86.4608,VALID,0,VALID,23.8517,VALID,359,VALID,0,
2009-11-03, 00:05:05,VALID,1009.18,VALID,0,VALID,86.4837,VALID,0,VALID,23.8109,VALID,359,VALID,0,
2009-11-03, 00:06:05,VALID,1009.16,VALID,0,VALID,86.4837,VALID,0,VALID,23.8109,VALID,359,VALID,0,
2009-11-03, 00:07:05,VALID,1009.14,VALID,0,VALID,86.476,VALID,0,VALID,23.8109,VALID,359,VALID,0,
2009-11-03, 00:08:05,VALID,1009.12,VALID,0,VALID,86.476,VALID,0,VALID,23.8109,VALID,359,VALID,0,
2009-11-03, 00:09:05,VALID,1009.12,VALID,0,VALID,86.4989,VALID,0,VALID,23.8127,VALID,359,VALID,0,
2009-11-03, 00:10:05,VALID,1009.16,VALID,0,VALID,86.4913,VALID,0,VALID,23.772,VALID,359,VALID,0,
2009-11-03, 00:11:05,VALID,1009.16,VALID,0,VALID,86.5142,VALID,0,VALID,23.7932,VALID,359,VALID,0,
2009-11-03, 00:12:05,VALID,1009.15,VALID,0,VALID,86.5142,VALID,0,VALID,23.7932,VALID,359,VALID,0,
2009-11-03, 00:13:05,VALID,1009.17,VALID,0,VALID,86.5142,VALID,0,VALID,23.7525,VALID,359,VALID,0,
2009-11-03, 00:14:05,VALID,1009.14,VALID,0,VALID,86.5218,VALID,0,VALID,23.733,VALID,359,VALID,0,
2009-11-03, 00:15:05,VALID,1009.12,VALID,0,VALID,86.5218,VALID,0,VALID,23.733,VALID,359,VALID,0,
2009-11-03, 00:16:05,VALID,1009.08,VALID,0,VALID,86.5218,VALID,0,VALID,23.7525,VALID,359,VALID,0,
2009-11-03, 00:17:05,VALID,1009.08,VALID,0,VALID,86.5142,VALID,0,VALID,23.7525,VALID,359,VALID,0,
2009-11-03, 00:18:05,VALID,1009.08,VALID,0,VALID,86.5294,VALID,0,VALID,23.7525,VALID,359,VALID,0,
2009-11-03, 00:19:05,VALID,1009.06,VALID,0,VALID,86.5142,VALID,0,VALID,23.7135,VALID,359,VALID,0,
2009-11-03, 00:20:05,VALID,1009.05,VALID,0,VALID,86.476,VALID,0,VALID,23.7525,VALID,359,VALID,0,
2009-11-03, 00:21:05,VALID,1009.04,VALID,0,VALID,86.5065,VALID,0,VALID,23.733,VALID,359,VALID,0,
2009-11-03, 00:22:05,VALID,1009.03,VALID,0,VALID,86.5065,VALID,0,VALID,23.733,VALID,359,VALID,0,
2009-11-03, 00:23:05,VALID,1009.04,VALID,0,VALID,86.4989,VALID,0,VALID,23.733,VALID,359,VALID,0,
2009-11-03, 00:24:05,VALID,1009.03,VALID,0,VALID,86.5218,VALID,0,VALID,23.733,VALID,359,VALID,0,
2009-11-03, 00:25:05,VALID,1009.03,VALID,0,VALID,86.5065,VALID,0,VALID,23.733,VALID,359,VALID,0,
2009-11-03, 00:26:05,VALID,1009.05,VALID,0,VALID,86.4913,VALID,0,VALID,23.7525,VALID,359,VALID,0,
2009-11-03, 00:27:05,VALID,1009.05,VALID,0,VALID,86.4913,VALID,0,VALID,23.7525,VALID,359,VALID,0,
2009-11-03, 00:28:05,VALID,1009.03,VALID,0,VALID,86.4989,VALID,0,VALID,23.7525,VALID,359,VALID,0,
2009-11-03, 00:29:05,VALID,1009.03,VALID,0,VALID,86.4989,VALID,0,VALID,23.7525,VALID,359,VALID,0,
2009-11-03, 00:30:05,VALID,1009.03,VALID,0,VALID,86.4913,VALID,0,VALID,23.7738,VALID,359,VALID,0,
2009-11-03, 00:31:05,VALID,1009.03,VALID,0,VALID,86.4989,VALID,0,VALID,23.7932,VALID,359,VALID,0,
2009-11-03, 00:32:05,VALID,1009.01,VALID,0,VALID,86.4913,VALID,0,VALID,23.772,VALID,359,VALID,0,
2009-11-03, 00:33:05,VALID,1008.97,VALID,0,VALID,86.4684,VALID,0,VALID,23.8127,VALID,359,VALID,0,
2009-11-03, 00:34:05,VALID,1008.96,VALID,0,VALID,86.4837,VALID,0,VALID,23.7914,VALID,359,VALID,0,
2009-11-03, 00:35:05,VALID,1008.93,VALID,0,VALID,86.476,VALID,0,VALID,23.8109,VALID,359,VALID,0,
2009-11-03, 00:36:05,VALID,1008.94,VALID,0,VALID,86.4989,VALID,0,VALID,23.8322,VALID,359,VALID,0,
2009-11-03, 00:37:05,VALID,1008.93,VALID,0,VALID,86.4837,VALID,0,VALID,23.8109,VALID,359,VALID,0,
2009-11-03, 00:38:05,VALID,1008.92,VALID,0,VALID,86.5142,VALID,0,VALID,23.8109,VALID,359,VALID,0,
2009-11-03, 00:39:05,VALID,1008.93,VALID,0,VALID,86.5065,VALID,0,VALID,23.8109,VALID,359,VALID,0,
2009-11-03, 00:40:05,VALID,1008.9,VALID,0,VALID,86.5142,VALID,0,VALID,23.7914,VALID,359,VALID,0,
2009-11-03, 00:41:05,VALID,1008.91,VALID,0,VALID,86.5065,VALID,0,VALID,23.7914,VALID,359,VALID,0,
2009-11-03, 00:42:05,VALID,1008.89,VALID,0,VALID,86.5142,VALID,0,VALID,23.7914,VALID,359,VALID,0,
2009-11-03, 00:43:05,VALID,1008.85,VALID,0,VALID,86.5294,VALID,0,VALID,23.772,VALID,359,VALID,0,
2009-11-03, 00:44:05,VALID,1008.82,VALID,0,VALID,86.537,VALID,0,VALID,23.772,VALID,359,VALID,0,
2009-11-03, 00:45:05,VALID,1008.8,VALID,0,VALID,86.5294,VALID,0,VALID,23.772,VALID,359,VALID,0,
2009-11-03, 00:46:05,VALID,1008.81,VALID,0,VALID,86.5142,VALID,0,VALID,23.7525,VALID,359,VALID,0,
2009-11-03, 00:47:05,VALID,1008.75,VALID,0,VALID,86.5218,VALID,0,VALID,23.733,VALID,359,VALID,0,
2009-11-03, 00:48:05,VALID,1008.76,VALID,0,VALID,86.5447,VALID,0,VALID,23.7543,VALID,359,VALID,0,
2009-11-03, 00:49:05,VALID,1008.75,VALID,0,VALID,86.5294,VALID,0,VALID,23.7135,VALID,26,VALID,0,
2009-11-03, 00:50:05,VALID,1008.75,VALID,0,VALID,86.5447,VALID,0,VALID,23.6922,VALID,26,VALID,0,
2009-11-03, 00:51:05,VALID,1008.7,VALID,0,VALID,86.5447,VALID,0,VALID,23.694,VALID,30,VALID,0,
2009-11-03, 00:52:05,VALID,1008.67,VALID,0,VALID,86.5218,VALID,0,VALID,23.694,VALID,30,VALID,0.625,
2009-11-03, 00:53:05,VALID,1008.68,VALID,0,VALID,86.5294,VALID,0,VALID,23.694,VALID,39,VALID,0.523828,
2009-11-03, 00:54:05,VALID,1008.64,VALID,0,VALID,86.5294,VALID,0,VALID,23.655,VALID,23,VALID,0.705859,
2009-11-03, 00:55:05,VALID,1008.6,VALID,0,VALID,86.537,VALID,0,VALID,23.6763,VALID,51,VALID,0.419531,
2009-11-03, 00:56:05,VALID,1008.58,VALID,0,VALID,86.5218,VALID,0,VALID,23.6745,VALID,30,VALID,0.550781,
2009-11-03, 00:57:05,VALID,1008.56,VALID,0,VALID,86.5447,VALID,0,VALID,23.655,VALID,36,VALID,0.492578,
2009-11-03, 00:58:05,VALID,1008.58,VALID,0,VALID,86.5523,VALID,0,VALID,23.6745,VALID,36,VALID,0.558984,
2009-11-03, 00:59:05,VALID,1008.56,VALID,0,VALID,86.5523,VALID,0,VALID,23.655,VALID,29,VALID,0.45625,
2009-11-03, 01:00:05,VALID,1008.58,VALID,0,VALID,86.5523,VALID,0,VALID,23.655,VALID,30,VALID,0.339063,
2009-11-03, 01:01:05,VALID,1008.57,VALID,0,VALID,86.5523,VALID,0,VALID,23.6356,VALID,71,VALID,0.669922,
2009-11-03, 01:02:05,VALID,1008.59,VALID,0,VALID,86.5447,VALID,0,VALID,23.6568,VALID,71,VALID,0.445313,
2009-11-03, 01:03:05,VALID,1008.57,VALID,0,VALID,86.5752,VALID,0,VALID,23.655,VALID,71,VALID,0.426562,
2009-11-03, 01:04:05,VALID,1008.57,VALID,0,VALID,86.5599,VALID,0,VALID,23.6356,VALID,71,VALID,0.564453,
2009-11-03, 01:05:05,VALID,1008.55,VALID,0,VALID,86.5599,VALID,0,VALID,23.655,VALID,72,VALID,0.552734,
2009-11-03, 01:06:05,VALID,1008.57,VALID,0,VALID,86.5447,VALID,0,VALID,23.655,VALID,91,VALID,0.719531,
2009-11-03, 01:07:05,VALID,1008.6,VALID,0,VALID,86.5447,VALID,0,VALID,23.6356,VALID,99,VALID,0.475,
2009-11-03, 01:08:05,VALID,1008.58,VALID,0,VALID,86.5676,VALID,0,VALID,23.6356,VALID,88,VALID,1.05938,
2009-11-03, 01:09:05,VALID,1008.59,VALID,0,VALID,86.5599,VALID,0,VALID,23.6356,VALID,89,VALID,0.880859,
2009-11-03, 01:10:05,VALID,1008.6,VALID,0,VALID,86.5676,VALID,0,VALID,23.655,VALID,89,VALID,0.916406,
2009-11-03, 01:11:05,VALID,1008.61,VALID,0,VALID,86.5599,VALID,0,VALID,23.655,VALID,95,VALID,0.901563,
2009-11-03, 01:12:05,VALID,1008.62,VALID,0,VALID,86.5599,VALID,0,VALID,23.6763,VALID,97,VALID,0.648047,
2009-11-03, 01:13:05,VALID,1008.59,VALID,0,VALID,86.5447,VALID,0,VALID,23.6958,VALID,122,VALID,0.823047,
2009-11-03, 01:14:05,VALID,1008.59,VALID,0,VALID,86.5447,VALID,0,VALID,23.6745,VALID,127,VALID,0.611719,
2009-11-03, 01:15:05,VALID,1008.55,VALID,0,VALID,86.537,VALID,0,VALID,23.694,VALID,107,VALID,0.653906,
2009-11-03, 01:16:05,VALID,1008.56,VALID,0,VALID,86.5599,VALID,0,VALID,23.694,VALID,105,VALID,0.819531,
2009-11-03, 01:17:05,VALID,1008.53,VALID,0,VALID,86.5676,VALID,0,VALID,23.6745,VALID,86,VALID,0.616406,
2009-11-03, 01:18:05,VALID,1008.51,VALID,0,VALID,86.5599,VALID,0,VALID,23.6745,VALID,105,VALID,0.809375,
2009-11-03, 01:19:05,VALID,1008.51,VALID,0,VALID,86.5752,VALID,0,VALID,23.6745,VALID,102,VALID,0.600391,
2009-11-03, 01:20:05,VALID,1008.5,VALID,0,VALID,86.5752,VALID,0,VALID,23.6745,VALID,95,VALID,0.729688,
2009-11-03, 01:21:05,VALID,1008.49,VALID,0,VALID,86.5752,VALID,0,VALID,23.655,VALID,84,VALID,1.03477,
2009-11-03, 01:22:05,VALID,1008.47,VALID,0,VALID,86.5676,VALID,0,VALID,23.6745,VALID,61,VALID,0.587891,
2009-11-03, 01:23:05,VALID,1008.45,VALID,0,VALID,86.5676,VALID,0,VALID,23.655,VALID,67,VALID,0.458984,
2009-11-03, 01:24:05,VALID,1008.44,VALID,0,VALID,86.5752,VALID,0,VALID,23.6763,VALID,76,VALID,0.31875,
2009-11-03, 01:25:05,VALID,1008.4,VALID,0,VALID,86.5676,VALID,0,VALID,23.6356,VALID,76,VALID,0.395312,
2009-11-03, 01:26:05,VALID,1008.4,VALID,0,VALID,86.5523,VALID,0,VALID,23.6568,VALID,66,VALID,0.407422,
2009-11-03, 01:27:05,VALID,1008.38,VALID,0,VALID,86.5752,VALID,0,VALID,23.6161,VALID,62,VALID,0.488281,
2009-11-03, 01:28:05,VALID,1008.38,VALID,0,VALID,86.5599,VALID,0,VALID,23.6161,VALID,62,VALID,0.247266,
2009-11-03, 01:29:05,VALID,1008.36,VALID,0,VALID,86.5752,VALID,0,VALID,23.6161,VALID,62,VALID,0.503906,
2009-11-03, 01:30:05,VALID,1008.38,VALID,0,VALID,86.5752,VALID,0,VALID,23.5966,VALID,85,VALID,0.758594,
2009-11-03, 01:31:05,VALID,1008.36,VALID,0,VALID,86.5904,VALID,0,VALID,23.5966,VALID,96,VALID,1.00898,
2009-11-03, 01:32:05,VALID,1008.35,VALID,0,VALID,86.5752,VALID,0,VALID,23.5966,VALID,95,VALID,0.821875,
2009-11-03, 01:33:05,VALID,1008.33,VALID,0,VALID,86.5828,VALID,0,VALID,23.5771,VALID,82,VALID,1.16992,
2009-11-03, 01:34:05,VALID,1008.3,VALID,0,VALID,86.5752,VALID,0,VALID,23.5771,VALID,76,VALID,0.878906,
2009-11-03, 01:35:05,VALID,1008.24,VALID,0,VALID,86.5752,VALID,0,VALID,23.5771,VALID,72,VALID,0.883984,
2009-11-03, 01:36:05,VALID,1008.24,VALID,0,VALID,86.5904,VALID,0,VALID,23.5576,VALID,72,VALID,0.594922,
2009-11-03, 01:37:05,VALID,1008.2,VALID,0,VALID,86.5828,VALID,0,VALID,23.5576,VALID,76,VALID,0.401563,
2009-11-03, 01:38:05,VALID,1008.21,VALID,0,VALID,86.5981,VALID,0.105969,VALID,23.5558,VALID,82,VALID,0.546484,
2009-11-03, 01:39:05,VALID,1008.17,VALID,0,VALID,86.6133,VALID,0,VALID,23.5363,VALID,87,VALID,0.860937,
2009-11-03, 01:40:05,VALID,1008.17,VALID,0,VALID,86.5904,VALID,0.105969,VALID,23.5558,VALID,86,VALID,1.03281,
2009-11-03, 01:41:05,VALID,1008.15,VALID,0,VALID,86.5981,VALID,0.105969,VALID,23.5381,VALID,86,VALID,1.01992,
2009-11-03, 01:42:05,VALID,1008.15,VALID,0,VALID,86.6057,VALID,0,VALID,23.5169,VALID,87,VALID,1.05547,
2009-11-03, 01:43:05,VALID,1008.09,VALID,0,VALID,86.5981,VALID,0.105969,VALID,23.4974,VALID,81,VALID,0.492578,
2009-11-03, 01:44:05,VALID,1008.03,VALID,0,VALID,86.6133,VALID,0.105969,VALID,23.4974,VALID,79,VALID,1.00117,
2009-11-03, 01:45:05,VALID,1008.02,VALID,0,VALID,86.5981,VALID,0.105969,VALID,23.4974,VALID,82,VALID,0.467969,
2009-11-03, 01:46:05,VALID,1007.98,VALID,0,VALID,86.5981,VALID,0.105969,VALID,23.4779,VALID,66,VALID,0.267969,
2009-11-03, 01:47:05,VALID,1007.95,VALID,0,VALID,86.5828,VALID,0.105969,VALID,23.4974,VALID,63,VALID,0.0121094,
2009-11-03, 01:48:05,VALID,1007.96,VALID,0,VALID,86.5904,VALID,0.105969,VALID,23.4779,VALID,62,VALID,0,
2009-11-03, 01:49:05,VALID,1007.94,VALID,0,VALID,86.5904,VALID,0.105969,VALID,23.4992,VALID,63,VALID,0,
2009-11-03, 01:50:05,VALID,1007.95,VALID,0,VALID,86.5828,VALID,0,VALID,23.4779,VALID,63,VALID,0,
2009-11-03, 01:51:05,VALID,1007.96,VALID,0,VALID,86.6057,VALID,0.105969,VALID,23.4779,VALID,63,VALID,0,
2009-11-03, 01:52:05,VALID,1007.98,VALID,0,VALID,86.5904,VALID,0.105969,VALID,23.4779,VALID,63,VALID,0,
2009-11-03, 01:53:05,VALID,1008,VALID,0,VALID,86.5904,VALID,0,VALID,23.4584,VALID,66,VALID,0.297266,
2009-11-03, 01:54:05,VALID,1008,VALID,0,VALID,86.5904,VALID,0.105969,VALID,23.4584,VALID,86,VALID,1.20078,
2009-11-03, 01:55:05,VALID,1008.02,VALID,0,VALID,86.5981,VALID,0,VALID,23.4797,VALID,82,VALID,0.862891,
2009-11-03, 01:56:05,VALID,1008.03,VALID,0,VALID,86.5904,VALID,0,VALID,23.4602,VALID,86,VALID,1.08008,
2009-11-03, 01:57:05,VALID,1008.04,VALID,0,VALID,86.5904,VALID,0,VALID,23.4602,VALID,76,VALID,1.55586,
2009-11-03, 01:58:05,VALID,1008.06,VALID,0,VALID,86.5981,VALID,0,VALID,23.4602,VALID,84,VALID,1.07852,
2009-11-03, 01:59:05,VALID,1008.07,VALID,0,VALID,86.5981,VALID,0,VALID,23.4602,VALID,81,VALID,1.20508,
2009-11-03, 02:00:05,VALID,1008.01,VALID,0,VALID,86.6057,VALID,0,VALID,23.4212,VALID,97,VALID,0.989844,
2009-11-03, 02:01:05,VALID,1008.03,VALID,0,VALID,86.6209,VALID,0,VALID,23.4212,VALID,76,VALID,0.870313,
2009-11-03, 02:02:05,VALID,1008.01,VALID,0,VALID,86.6133,VALID,0,VALID,23.4212,VALID,88,VALID,0.707031,
2009-11-03, 02:03:05,VALID,1008.02,VALID,0,VALID,86.5981,VALID,0,VALID,23.4212,VALID,89,VALID,0.741797,
2009-11-03, 02:04:05,VALID,1007.99,VALID,0,VALID,86.5828,VALID,0,VALID,23.4212,VALID,98,VALID,0.621875,
2009-11-03, 02:05:05,VALID,1007.96,VALID,0,VALID,86.5981,VALID,0,VALID,23.4017,VALID,96,VALID,0.171094,
2009-11-03, 02:06:05,VALID,1007.94,VALID,0,VALID,86.6057,VALID,0,VALID,23.4017,VALID,96,VALID,0.305469,
2009-11-03, 02:07:05,VALID,1007.95,VALID,0,VALID,86.5828,VALID,0,VALID,23.4017,VALID,96,VALID,0.0867188,
2009-11-03, 02:08:05,VALID,1007.93,VALID,0,VALID,86.5828,VALID,0,VALID,23.4017,VALID,96,VALID,0.0839844,
2009-11-03, 02:09:05,VALID,1007.92,VALID,0,VALID,86.5828,VALID,0,VALID,23.4017,VALID,84,VALID,0.412891,
2009-11-03, 02:10:05,VALID,1007.93,VALID,0,VALID,86.5523,VALID,0,VALID,23.4017,VALID,84,VALID,0.303906,
2009-11-03, 02:11:05,VALID,1007.88,VALID,0,VALID,86.5904,VALID,0,VALID,23.4017,VALID,84,VALID,0,
2009-11-03, 02:12:05,VALID,1007.85,VALID,0,VALID,86.5752,VALID,0,VALID,23.4212,VALID,84,VALID,0.0855469,
2009-11-03, 02:13:05,VALID,1007.85,VALID,0,VALID,86.5828,VALID,0,VALID,23.4017,VALID,95,VALID,0.361719,
2009-11-03, 02:14:05,VALID,1007.85,VALID,0,VALID,86.5904,VALID,0,VALID,23.4017,VALID,105,VALID,0.444141,
2009-11-03, 02:15:05,VALID,1007.83,VALID,0,VALID,86.5904,VALID,0,VALID,23.4017,VALID,163,VALID,0.208984,
2009-11-03, 02:16:05,VALID,1007.82,VALID,0,VALID,86.5599,VALID,0,VALID,23.3823,VALID,163,VALID,0.369141,
2009-11-03, 02:17:05,VALID,1007.81,VALID,0,VALID,86.5828,VALID,0,VALID,23.3823,VALID,163,VALID,0.274609,
2009-11-03, 02:18:05,VALID,1007.78,VALID,0,VALID,86.6057,VALID,0,VALID,23.3823,VALID,151,VALID,0.558984,
2009-11-03, 02:19:05,VALID,1007.75,VALID,0,VALID,86.5981,VALID,0,VALID,23.384,VALID,138,VALID,0.385938,
2009-11-03, 02:20:05,VALID,1007.75,VALID,0,VALID,86.6057,VALID,0,VALID,23.3628,VALID,138,VALID,0.391406,
2009-11-03, 02:21:05,VALID,1007.7,VALID,0,VALID,86.5904,VALID,0,VALID,23.3628,VALID,138,VALID,0.404687,
2009-11-03, 02:22:05,VALID,1007.69,VALID,0,VALID,86.5981,VALID,0,VALID,23.3433,VALID,138,VALID,0.3125,
2009-11-03, 02:23:05,VALID,1007.66,VALID,0,VALID,86.5904,VALID,0,VALID,23.3433,VALID,138,VALID,0.25625,
2009-11-03, 02:24:05,VALID,1007.68,VALID,0,VALID,86.5904,VALID,0,VALID,23.3238,VALID,138,VALID,0.173828,
2009-11-03, 02:25:05,VALID,1007.68,VALID,0,VALID,86.5676,VALID,0,VALID,23.3238,VALID,138,VALID,0.277734,
2009-11-03, 02:26:05,VALID,1007.67,VALID,0,VALID,86.5752,VALID,0,VALID,23.3433,VALID,138,VALID,0.430078,
2009-11-03, 02:27:05,VALID,1007.7,VALID,0,VALID,86.5828,VALID,0,VALID,23.3238,VALID,138,VALID,0.221484,
2009-11-03, 02:28:05,VALID,1007.72,VALID,0,VALID,86.5904,VALID,0,VALID,23.3433,VALID,138,VALID,0.388672,
2009-11-03, 02:29:05,VALID,1007.72,VALID,0,VALID,86.5752,VALID,0.105969,VALID,23.3433,VALID,138,VALID,0.0207031,
2009-11-03, 02:30:05,VALID,1007.72,VALID,0,VALID,86.5599,VALID,0,VALID,23.3433,VALID,138,VALID,0.300391,
2009-11-03, 02:31:05,VALID,1007.7,VALID,0,VALID,86.5523,VALID,0,VALID,23.3433,VALID,138,VALID,0.732031,
2009-11-03, 02:32:05,VALID,1007.68,VALID,0,VALID,86.5447,VALID,0,VALID,23.3238,VALID,138,VALID,0.371094,
2009-11-03, 02:33:04,VALID,1007.66,VALID,0,VALID,86.5676,VALID,0,VALID,23.3433,VALID,138,VALID,0.325,
2009-11-03, 02:34:04,VALID,1007.64,VALID,0,VALID,86.5523,VALID,0,VALID,23.3238,VALID,138,VALID,0.313281,
2009-11-03, 02:35:04,VALID,1007.63,VALID,0,VALID,86.5599,VALID,0,VALID,23.3415,VALID,138,VALID,0.450391,
2009-11-03, 02:36:04,VALID,1007.62,VALID,0,VALID,86.5523,VALID,0,VALID,23.3433,VALID,138,VALID,0.124609,
2009-11-03, 02:37:04,VALID,1007.6,VALID,0,VALID,86.5447,VALID,0,VALID,23.3645,VALID,138,VALID,0.2,
2009-11-03, 02:38:04,VALID,1007.61,VALID,0,VALID,86.5447,VALID,0,VALID,23.3433,VALID,138,VALID,0,
2009-11-03, 02:39:04,VALID,1007.61,VALID,0,VALID,86.5447,VALID,0,VALID,23.322,VALID,138,VALID,0,
2009-11-03, 02:40:04,VALID,1007.59,VALID,0,VALID,86.5447,VALID,0,VALID,23.3433,VALID,138,VALID,0,
2009-11-03, 02:41:04,VALID,1007.62,VALID,0,VALID,86.5523,VALID,0,VALID,23.3628,VALID,138,VALID,0,
2009-11-03, 02:42:04,VALID,1007.61,VALID,0,VALID,86.5294,VALID,0,VALID,23.3415,VALID,138,VALID,0,
2009-11-03, 02:43:04,VALID,1007.65,VALID,0,VALID,86.5447,VALID,0,VALID,23.3628,VALID,138,VALID,0,
2009-11-03, 02:44:04,VALID,1007.6,VALID,0,VALID,86.5218,VALID,0,VALID,23.3628,VALID,131,VALID,0.296484,
2009-11-03, 02:45:04,VALID,1007.61,VALID,0,VALID,86.5447,VALID,0,VALID,23.3628,VALID,129,VALID,0.478125,
2009-11-03, 02:46:04,VALID,1007.59,VALID,0,VALID,86.5218,VALID,0,VALID,23.3823,VALID,129,VALID,0.220313,
2009-11-03, 02:47:04,VALID,1007.58,VALID,0,VALID,86.5447,VALID,0,VALID,23.361,VALID,129,VALID,0.00585938,
2009-11-03, 02:48:04,VALID,1007.56,VALID,0,VALID,86.5447,VALID,0,VALID,23.3823,VALID,129,VALID,0,
2009-11-03, 02:49:04,VALID,1007.56,VALID,0,VALID,86.5447,VALID,0,VALID,23.3823,VALID,129,VALID,0,
2009-11-03, 02:50:04,VALID,1007.57,VALID,0,VALID,86.5523,VALID,0,VALID,23.3628,VALID,129,VALID,0,
2009-11-03, 02:51:04,VALID,1007.58,VALID,0,VALID,86.5523,VALID,0,VALID,23.3415,VALID,129,VALID,0,
2009-11-03, 02:52:04,VALID,1007.56,VALID,0,VALID,86.5523,VALID,0,VALID,23.384,VALID,129,VALID,0,
2009-11-03, 02:53:04,VALID,1007.57,VALID,0,VALID,86.5752,VALID,0,VALID,23.3628,VALID,129,VALID,0,
2009-11-03, 02:54:04,VALID,1007.55,VALID,0,VALID,86.5828,VALID,0,VALID,23.3433,VALID,129,VALID,0,
2009-11-03, 02:55:04,VALID,1007.58,VALID,0,VALID,86.5981,VALID,0,VALID,23.3238,VALID,129,VALID,0,
2009-11-03, 02:56:04,VALID,1007.58,VALID,0,VALID,86.6133,VALID,0,VALID,23.3043,VALID,129,VALID,0,
2009-11-03, 02:57:04,VALID,1007.59,VALID,0,VALID,86.5981,VALID,0,VALID,23.3043,VALID,129,VALID,0.2375,
2009-11-03, 02:58:04,VALID,1007.59,VALID,0,VALID,86.6209,VALID,0,VALID,23.2848,VALID,129,VALID,0.321094,
2009-11-03, 02:59:04,VALID,1007.6,VALID,0,VALID,86.6209,VALID,0,VALID,23.2654,VALID,129,VALID,0.310547,
2009-11-03, 03:00:04,VALID,1007.61,VALID,0,VALID,86.6133,VALID,0,VALID,23.2654,VALID,128,VALID,0.341406,
2009-11-03, 03:01:04,VALID,1007.61,VALID,0,VALID,86.6209,VALID,0,VALID,23.2459,VALID,128,VALID,0.316797,
2009-11-03, 03:02:04,VALID,1007.61,VALID,0,VALID,86.6286,VALID,0,VALID,23.2459,VALID,128,VALID,0.245703,
2009-11-03, 03:03:04,VALID,1007.61,VALID,0,VALID,86.6133,VALID,0,VALID,23.2459,VALID,128,VALID,0.0226563,
2009-11-03, 03:04:04,VALID,1007.59,VALID,0,VALID,86.6057,VALID,0,VALID,23.2264,VALID,124,VALID,0.235547,
2009-11-03, 03:05:04,VALID,1007.63,VALID,0,VALID,86.5981,VALID,0,VALID,23.2264,VALID,68,VALID,0.203516,
2009-11-03, 03:06:04,VALID,1007.65,VALID,0,VALID,86.6133,VALID,0,VALID,23.2264,VALID,68,VALID,0.19375,
2009-11-03, 03:07:04,VALID,1007.64,VALID,0,VALID,86.6209,VALID,0,VALID,23.2069,VALID,68,VALID,0.291406,
2009-11-03, 03:08:04,VALID,1007.65,VALID,0,VALID,86.6133,VALID,0,VALID,23.2069,VALID,68,VALID,0,
2009-11-03, 03:09:04,VALID,1007.63,VALID,0,VALID,86.6362,VALID,0,VALID,23.1874,VALID,68,VALID,0,
2009-11-03, 03:10:04,VALID,1007.63,VALID,0,VALID,86.6286,VALID,0,VALID,23.2087,VALID,69,VALID,0,
2009-11-03, 03:11:04,VALID,1007.66,VALID,0,VALID,86.6362,VALID,0,VALID,23.1874,VALID,68,VALID,0,
2009-11-03, 03:12:04,VALID,1007.68,VALID,0,VALID,86.6286,VALID,0,VALID,23.1679,VALID,68,VALID,0,
2009-11-03, 03:13:04,VALID,1007.66,VALID,0,VALID,86.6362,VALID,0,VALID,23.1679,VALID,68,VALID,0,
2009-11-03, 03:14:04,VALID,1007.66,VALID,0,VALID,86.6438,VALID,0,VALID,23.1679,VALID,68,VALID,0,
2009-11-03, 03:15:04,VALID,1007.68,VALID,0,VALID,86.6209,VALID,0,VALID,23.1679,VALID,68,VALID,0,
2009-11-03, 03:16:04,VALID,1007.68,VALID,0,VALID,86.6514,VALID,0,VALID,23.1485,VALID,68,VALID,0,
2009-11-03, 03:17:04,VALID,1007.68,VALID,0,VALID,86.6514,VALID,0,VALID,23.1697,VALID,68,VALID,0,
2009-11-03, 03:18:04,VALID,1007.67,VALID,0,VALID,86.6286,VALID,0,VALID,23.1485,VALID,68,VALID,0,
2009-11-03, 03:19:04,VALID,1007.65,VALID,0,VALID,86.6438,VALID,0,VALID,23.1697,VALID,6,VALID,0,
2009-11-03, 03:20:04,VALID,1007.63,VALID,0,VALID,86.6286,VALID,0,VALID,23.1485,VALID,6,VALID,0,
2009-11-03, 03:21:04,VALID,1007.62,VALID,0,VALID,86.6438,VALID,0,VALID,23.1485,VALID,6,VALID,0,
2009-11-03, 03:22:04,VALID,1007.61,VALID,0,VALID,86.6667,VALID,0,VALID,23.129,VALID,5,VALID,0,
2009-11-03, 03:23:04,VALID,1007.61,VALID,0,VALID,86.6591,VALID,0,VALID,23.1307,VALID,5,VALID,0,
2009-11-03, 03:24:04,VALID,1007.6,VALID,0,VALID,86.6591,VALID,0,VALID,23.1095,VALID,5,VALID,0,
2009-11-03, 03:25:04,VALID,1007.61,VALID,0,VALID,86.6591,VALID,0,VALID,23.09,VALID,5,VALID,0,
2009-11-03, 03:26:04,VALID,1007.62,VALID,0,VALID,86.6667,VALID,0,VALID,23.09,VALID,5,VALID,0,
2009-11-03, 03:27:04,VALID,1007.6,VALID,0,VALID,86.6743,VALID,0,VALID,23.0918,VALID,5,VALID,0,
2009-11-03, 03:28:04,VALID,1007.61,VALID,0,VALID,86.6743,VALID,0,VALID,23.0705,VALID,5,VALID,0,
2009-11-03, 03:29:04,VALID,1007.62,VALID,0,VALID,86.6896,VALID,0,VALID,23.0511,VALID,5,VALID,0,
2009-11-03, 03:30:04,VALID,1007.64,VALID,0,VALID,86.6972,VALID,0,VALID,23.0723,VALID,5,VALID,0,
2009-11-03, 03:31:04,VALID,1007.66,VALID,0,VALID,86.6972,VALID,0,VALID,23.0705,VALID,5,VALID,0,
2009-11-03, 03:32:04,VALID,1007.67,VALID,0,VALID,86.7048,VALID,0,VALID,23.0511,VALID,5,VALID,0,
2009-11-03, 03:33:04,VALID,1007.7,VALID,0,VALID,86.7124,VALID,0,VALID,23.0316,VALID,5,VALID,0,
2009-11-03, 03:34:04,VALID,1007.68,VALID,0,VALID,86.7201,VALID,0,VALID,23.0528,VALID,5,VALID,0,
2009-11-03, 03:35:04,VALID,1007.7,VALID,0,VALID,86.7277,VALID,0,VALID,23.0316,VALID,5,VALID,0,
2009-11-03, 03:36:04,VALID,1007.72,VALID,0,VALID,86.7124,VALID,0,VALID,23.0316,VALID,5,VALID,0,
2009-11-03, 03:37:04,VALID,1007.69,VALID,0,VALID,86.7429,VALID,0,VALID,23.0528,VALID,336,VALID,0,
2009-11-03, 03:38:04,VALID,1007.71,VALID,0,VALID,86.7353,VALID,0,VALID,23.0316,VALID,305,VALID,0,
2009-11-03, 03:39:04,VALID,1007.69,VALID,0,VALID,86.7277,VALID,0,VALID,23.0316,VALID,305,VALID,0,
2009-11-03, 03:40:04,VALID,1007.73,VALID,0,VALID,86.6972,VALID,0,VALID,23.0511,VALID,305,VALID,0,
2009-11-03, 03:41:04,VALID,1007.74,VALID,0,VALID,86.6896,VALID,0,VALID,23.0705,VALID,305,VALID,0,
2009-11-03, 03:42:04,VALID,1007.76,VALID,0,VALID,86.6819,VALID,0,VALID,23.09,VALID,292,VALID,0,
2009-11-03, 03:43:04,VALID,1007.75,VALID,0,VALID,86.6743,VALID,0,VALID,23.09,VALID,292,VALID,0.336328,
2009-11-03, 03:44:04,VALID,1007.77,VALID,0,VALID,86.6438,VALID,0,VALID,23.1077,VALID,246,VALID,0.358203,
2009-11-03, 03:45:04,VALID,1007.77,VALID,0,VALID,86.6743,VALID,0,VALID,23.1307,VALID,228,VALID,0.5125,
2009-11-03, 03:46:04,VALID,1007.76,VALID,0,VALID,86.6896,VALID,0,VALID,23.1095,VALID,226,VALID,0.269531,
2009-11-03, 03:47:04,VALID,1007.75,VALID,0,VALID,86.7201,VALID,0,VALID,23.1112,VALID,226,VALID,0.301562,
2009-11-03, 03:48:04,VALID,1007.74,VALID,0,VALID,86.7124,VALID,0,VALID,23.0705,VALID,226,VALID,0.286719,
2009-11-03, 03:49:04,VALID,1007.74,VALID,0,VALID,86.7201,VALID,0,VALID,23.0918,VALID,226,VALID,0.199609,
2009-11-03, 03:50:04,VALID,1007.72,VALID,0,VALID,86.6972,VALID,0,VALID,23.09,VALID,226,VALID,0.0417969,
2009-11-03, 03:51:04,VALID,1007.73,VALID,0,VALID,86.6819,VALID,0,VALID,23.0918,VALID,226,VALID,0,
2009-11-03, 03:52:04,VALID,1007.72,VALID,0,VALID,86.7048,VALID,0,VALID,23.09,VALID,226,VALID,0,